Hourly Weather Niegoslawice

Today, 8 July, Wednesday

Time Temperature Precipitation Wind Pressure Humidity
00:00 +13°C° 0.2 mm 3 mps 750 mmHg 78%
01:00 +13°C° 0 mm 3 mps 749 mmHg 80%
02:00 +12°C° 0.5 mm 3 mps 749 mmHg 84%
03:00 +12°C° 0.5 mm 3 mps 749 mmHg 88%
04:00 +13°C° 0.5 mm 2 mps 749 mmHg 92%
05:00 +12°C° 0.2 mm 3 mps 749 mmHg 92%
06:00 +12°C° 0.2 mm 3 mps 749 mmHg 92%
07:00 +12°C° 0.2 mm 3 mps 749 mmHg 91%
08:00 +13°C° 0.1 mm 3 mps 749 mmHg 87%
09:00 +14°C° 0.1 mm 3 mps 750 mmHg 82%
10:00 +14°C° 0.1 mm 4 mps 750 mmHg 78%
11:00 +14°C° 0.2 mm 4 mps 750 mmHg 79%
12:00 +14°C° 0.2 mm 4 mps 749 mmHg 81%
13:00 +14°C° 0.2 mm 4 mps 749 mmHg 82%
14:00 +14°C° 0.1 mm 4 mps 749 mmHg 81%
15:00 +14°C° 0.1 mm 4 mps 749 mmHg 81%
16:00 +14°C° 0.1 mm 4 mps 749 mmHg 80%
17:00 +14°C° 0 mm 3 mps 749 mmHg 82%
18:00 +14°C° 0 mm 3 mps 749 mmHg 83%
19:00 +14°C° 0 mm 3 mps 749 mmHg 85%
20:00 +13°C° 0 mm 3 mps 750 mmHg 89%
21:00 +13°C° 0 mm 2 mps 750 mmHg 92%
22:00 +12°C° 0 mm 2 mps 750 mmHg 96%
23:00 +12°C° 0 mm 2 mps 750 mmHg 96%

Tomorrow, 9 July, Thursday

Time Temperature Precipitation Wind Pressure Humidity
00:00 +12°C° 0 mm 2 mps 751 mmHg 96%
01:00 +12°C° 0 mm 2 mps 751 mmHg 97%
02:00 +10°C° 0 mm 2 mps 751 mmHg 97%
03:00 +10°C° 0 mm 2 mps 751 mmHg 97%
04:00 +10°C° 0 mm 2 mps 751 mmHg 97%
05:00 +13°C° 0 mm 2 mps 751 mmHg 92%
06:00 +14°C° 0 mm 2 mps 751 mmHg 87%
07:00 +16°C° 0 mm 2 mps 751 mmHg 82%
08:00 +17°C° 0 mm 2 mps 751 mmHg 76%
09:00 +18°C° 0 mm 3 mps 751 mmHg 71%
10:00 +19°C° 0 mm 3 mps 751 mmHg 65%
11:00 +19°C° 0 mm 3 mps 750 mmHg 67%
12:00 +18°C° 0 mm 3 mps 750 mmHg 68%
13:00 +18°C° 0 mm 3 mps 750 mmHg 70%
14:00 +19°C° 0 mm 3 mps 749 mmHg 69%
15:00 +21°C° 0 mm 4 mps 749 mmHg 67%
16:00 +22°C° 0 mm 4 mps 749 mmHg 66%
17:00 +21°C° 0.2 mm 4 mps 748 mmHg 74%
18:00 +19°C° 0.2 mm 3 mps 748 mmHg 81%
19:00 +18°C° 0.2 mm 3 mps 747 mmHg 89%
20:00 +18°C° 0 mm 3 mps 748 mmHg 91%
21:00 +17°C° 0 mm 2 mps 748 mmHg 92%
22:00 +17°C° 0 mm 2 mps 748 mmHg 93%
23:00 +17°C° 0 mm 2 mps 748 mmHg 94%

Day after tomorrow, 10 July, Friday

Time Temperature Precipitation Wind Pressure Humidity
00:00 +16°C° 0 mm 2 mps 747 mmHg 94%
01:00 +16°C° 0 mm 2 mps 747 mmHg 94%
02:00 +16°C° 0 mm 2 mps 747 mmHg 94%
03:00 +16°C° 0 mm 2 mps 747 mmHg 94%
04:00 +16°C° 0 mm 2 mps 746 mmHg 95%
05:00 +18°C° 0 mm 3 mps 746 mmHg 89%
06:00 +19°C° 0 mm 3 mps 746 mmHg 84%
07:00 +21°C° 0 mm 4 mps 746 mmHg 79%
08:00 +22°C° 0.1 mm 4 mps 746 mmHg 72%
09:00 +25°C° 0.1 mm 5 mps 746 mmHg 65%
10:00 +26°C° 0.1 mm 5 mps 746 mmHg 58%
11:00 +27°C° 0.1 mm 5 mps 746 mmHg 56%
12:00 +27°C° 0.1 mm 4 mps 745 mmHg 53%
13:00 +28°C° 0.1 mm 4 mps 745 mmHg 51%
14:00 +27°C° 0.3 mm 4 mps 745 mmHg 56%
15:00 +26°C° 0.3 mm 3 mps 745 mmHg 62%
16:00 +25°C° 0.3 mm 3 mps 745 mmHg 68%
17:00 +24°C° 0.5 mm 3 mps 745 mmHg 75%
18:00 +21°C° 0.5 mm 3 mps 745 mmHg 82%
19:00 +19°C° 0.5 mm 3 mps 745 mmHg 89%
20:00 +18°C° 0 mm 3 mps 745 mmHg 89%
21:00 +17°C° 0 mm 3 mps 746 mmHg 88%
22:00 +17°C° 0 mm 3 mps 746 mmHg 88%
23:00 +17°C° 0 mm 3 mps 747 mmHg 90%

11 July, Saturday

Time Temperature Precipitation Wind Pressure Humidity
00:00 +16°C° 0 mm 3 mps 747 mmHg 91%
01:00 +15°C° 0 mm 4 mps 748 mmHg 93%
02:00 +15°C° 0 mm 4 mps 748 mmHg 93%
03:00 +14°C° 0 mm 4 mps 749 mmHg 93%
04:00 +13°C° 0 mm 4 mps 749 mmHg 94%
05:00 +13°C° 0 mm 4 mps 750 mmHg 90%
06:00 +13°C° 0 mm 3 mps 750 mmHg 87%
07:00 +13°C° 0 mm 3 mps 751 mmHg 83%
08:00 +14°C° 0 mm 3 mps 751 mmHg 77%
09:00 +16°C° 0 mm 3 mps 752 mmHg 70%
10:00 +17°C° 0 mm 3 mps 752 mmHg 63%
11:00 +18°C° 0 mm 3 mps 752 mmHg 58%
12:00 +19°C° 0 mm 3 mps 753 mmHg 52%
13:00 +19°C° 0 mm 3 mps 753 mmHg 47%
14:00 +20°C° 0 mm 3 mps 753 mmHg 47%
15:00 +20°C° 0 mm 3 mps 753 mmHg 47%
16:00 +20°C° 0 mm 3 mps 752 mmHg 47%
17:00 +19°C° 0 mm 3 mps 753 mmHg 52%
18:00 +18°C° 0 mm 3 mps 753 mmHg 58%
19:00 +17°C° 0 mm 2 mps 753 mmHg 63%
20:00 +16°C° 0 mm 2 mps 754 mmHg 69%
21:00 +15°C° 0 mm 2 mps 754 mmHg 75%
22:00 +13°C° 0 mm 2 mps 754 mmHg 81%
23:00 +13°C° 0 mm 2 mps 754 mmHg 84%

12 July, Sunday

Time Temperature Precipitation Wind Pressure Humidity
00:00 +12°C° 0 mm 2 mps 754 mmHg 87%
01:00 +12°C° 0 mm 2 mps 754 mmHg 90%
02:00 +10°C° 0 mm 2 mps 755 mmHg 91%
03:00 +10°C° 0 mm 2 mps 755 mmHg 92%
04:00 +9°C° 0 mm 2 mps 755 mmHg 93%
05:00 +10°C° 0 mm 3 mps 755 mmHg 86%
06:00 +12°C° 0 mm 3 mps 755 mmHg 80%
07:00 +13°C° 0 mm 4 mps 756 mmHg 73%
08:00 +15°C° 0 mm 4 mps 756 mmHg 65%
09:00 +17°C° 0 mm 4 mps 756 mmHg 57%
10:00 +18°C° 0 mm 4 mps 756 mmHg 49%
11:00 +19°C° 0 mm 4 mps 756 mmHg 46%
12:00 +20°C° 0 mm 4 mps 756 mmHg 43%
13:00 +21°C° 0 mm 4 mps 756 mmHg 40%
14:00 +21°C° 0 mm 4 mps 756 mmHg 40%
15:00 +21°C° 0 mm 4 mps 755 mmHg 40%
16:00 +21°C° 0 mm 4 mps 755 mmHg 41%
17:00 +20°C° 0 mm 3 mps 755 mmHg 46%
18:00 +19°C° 0 mm 3 mps 755 mmHg 51%
19:00 +18°C° 0 mm 2 mps 755 mmHg 57%
20:00 +16°C° 0 mm 2 mps 755 mmHg 61%
21:00 +15°C° 0 mm 1 mps 756 mmHg 66%
22:00 +13°C° 0 mm 1 mps 756 mmHg 70%
23:00 +13°C° 0 mm 1 mps 756 mmHg 73%

13 July, Monday

Time Temperature Precipitation Wind Pressure Humidity
00:00 +12°C° 0 mm 1 mps 756 mmHg 77%
01:00 +11°C° 0 mm 1 mps 756 mmHg 80%
02:00 +11°C° 0 mm 1 mps 755 mmHg 83%
03:00 +10°C° 0 mm 2 mps 755 mmHg 85%
04:00 +9°C° 0 mm 2 mps 755 mmHg 88%
05:00 +12°C° 0 mm 2 mps 755 mmHg 81%
06:00 +14°C° 0 mm 2 mps 755 mmHg 75%
07:00 +16°C° 0 mm 2 mps 755 mmHg 69%
08:00 +17°C° 0 mm 2 mps 755 mmHg 62%
09:00 +19°C° 0 mm 2 mps 755 mmHg 55%
10:00 +20°C° 0 mm 2 mps 755 mmHg 49%
11:00 +21°C° 0 mm 2 mps 755 mmHg 47%
12:00 +21°C° 0 mm 2 mps 754 mmHg 46%
13:00 +21°C° 0 mm 2 mps 754 mmHg 45%
14:00 +23°C° 0 mm 1 mps 754 mmHg 45%
15:00 +23°C° 0 mm 1 mps 753 mmHg 44%
16:00 +23°C° 0 mm 1 mps 753 mmHg 44%
17:00 +22°C° 0 mm 1 mps 753 mmHg 49%
18:00 +21°C° 0 mm 1 mps 752 mmHg 54%
19:00 +20°C° 0 mm 1 mps 752 mmHg 58%
20:00 +19°C° 0 mm 1 mps 752 mmHg 62%
21:00 +16°C° 0 mm 1 mps 752 mmHg 66%
22:00 +15°C° 0 mm 1 mps 752 mmHg 70%
23:00 +14°C° 0 mm 1 mps 752 mmHg 72%
Show more